Orbital Elements at Epoch 2459200.5 (2020-Dec-17.0) TDB
Reference: JPL 16 (heliocentric ecliptic J2000)
Element | Value | Uncertainty (1-sigma) | Units |
e | .2394118772963425 | 3.5073e-08 | |
a | 2.365868974872831 | 8.776e-09 | au |
q | 1.799451842161353 | 8.5256e-08 | au |
i | 2.065385440927248 | 4.8933e-06 | deg |
node | 350.6724452554081 | 0.00010841 | deg |
peri | 321.0893345899896 | 0.00010895 | deg |
M | 354.7403119324903 | 1.1536e-05 | deg |
tp | 2459219.919674591570 (2021-Jan-05.41967459) | 4.2635e-05 | TDB |
period | 1329.18202814168 3.64 | 7.3957e-06 2.025e-08 | d yr |
n | .2708432647884305 | 1.507e-09 | deg/d |
Q | 2.932286107584309 | 1.0877e-08 | au |
|
| | Orbit Determination Parameters
Additional Information
|